Mattoon, IL

9:03 AM CST on November 13, 2019 (GMT -0600)
Coles County Memorial

Weather History for KMTO - September, 2019

Change the Weather History Date:

Tuesday, September 17, 2019

  Actual Average Record
Temperature  
Mean Temperature 74 °F 66 °F  
Max Temperature 86 °F 78 °F 95 °F (1954)
Min Temperature 61 °F 55 °F 42 °F (1984)
Degree Days  
Heating Degree Days 0 2  
Month to date heating degree days 0 14  
Since 1 July heating degree days 0 19  
Cooling Degree Days 9 3  
Month to date cooling degree days 131 88  
Year to date cooling degree days 1116 1008  
Growing Degree Days 22 (Base 50)    
Moisture  
Dew Point 63 °F    
Average Humidity 74    
Maximum Humidity 100    
Minimum Humidity 48    
Precipitation  
Precipitation 0.00 in 0.08 in 2.89 in (1969)
Month to date precipitation 0.47 1.81  
Year to date precipitation 25.60 27.71  
Sea Level Pressure  
Sea Level Pressure 30.08 in    
Wind  
Wind Speed 6 mph (ENE)    
Max Wind Speed 12 mph    
Max Gust Speed 17 mph    
Visibility 7 miles    
Events      
T = Trace of Precipitation, MM = Missing Value Source: NWS Daily Summary

Daily Weather History Graph

Daily Weather History Graph

Search for Another Location

Airport or City:

Astronomy

Sep. 17, 2019 Rise Set
Actual Time 6:35 AM CDT 6:58 PM CDT
Civil Twilight 6:09 AM CDT 7:25 PM CDT
Nautical Twilight 5:37 AM CDT 7:57 PM CDT
Astronomical Twilight 5:04 AM CDT 8:29 PM CDT
Moon 9:02 PM CDT (9/17) 9:39 AM CDT (9/17)
Length of Visible Light 13h 16m
Length of Day
12h 22m
Waning Gibbous, 89% of the Moon is Illuminated
Sep 17
Waning Gibbous
Sep 21
Last Quarter
Sep 28
New
Oct 5
First Quarter
Oct 13
Full

Hourly Weather History & Observations

Time (CDT) Temp. Heat Index Dew Point Humidity Pressure Visibility Wind Dir Wind Speed Gust Speed Precip Events Conditions
12:53 AM 64.9 °F - 63.0 °F 93% 30.06 in 7.0 mi NNE 5.8 mph - N/A   Clear
1:53 AM 64.9 °F - 63.0 °F 93% 30.06 in 6.0 mi NNE 4.6 mph - N/A   Clear
2:53 AM 63.0 °F - 62.1 °F 97% 30.06 in 3.0 mi North 4.6 mph - N/A   Clear
3:53 AM 63.0 °F - 61.0 °F 93% 30.07 in 2.5 mi NNE 4.6 mph - N/A   Clear
4:10 AM 62.1 °F - 61.0 °F 96% 30.09 in 3.0 mi North 4.6 mph - N/A   Clear
4:19 AM 62.1 °F - 61.0 °F 96% 30.08 in 2.5 mi NNE 4.6 mph - N/A   Clear
4:31 AM 62.1 °F - 61.0 °F 96% 30.09 in 4.0 mi NNE 4.6 mph - N/A   Clear
4:53 AM 62.1 °F - 61.0 °F 96% 30.07 in 3.0 mi NE 3.5 mph - N/A   Clear
5:53 AM 61.0 °F - 60.1 °F 97% 30.08 in 3.0 mi NNE 4.6 mph - N/A   Clear
6:53 AM 62.1 °F - 61.0 °F 96% 30.10 in 3.0 mi NE 4.6 mph - N/A   Clear
7:53 AM 66.0 °F - 64.0 °F 93% 30.12 in 5.0 mi ENE 5.8 mph - N/A   Clear
8:53 AM 68.0 °F - 64.9 °F 90% 30.12 in 7.0 mi ENE 5.8 mph - N/A   Clear
9:53 AM 73.0 °F - 64.9 °F 76% 30.12 in 10.0 mi East 4.6 mph - N/A   Clear
10:53 AM 78.1 °F - 66.0 °F 66% 30.12 in 10.0 mi East 5.8 mph - N/A   Clear
11:53 AM 82.0 °F 84.1 °F 66.0 °F 58% 30.11 in 10.0 mi Variable 4.6 mph - N/A   Clear
12:53 PM 82.9 °F 84.4 °F 64.0 °F 53% 30.09 in 10.0 mi ESE 10.4 mph - N/A   Partly Cloudy
1:53 PM 84.9 °F 86.1 °F 64.0 °F 49% 30.07 in 10.0 mi ESE 5.8 mph - N/A   Scattered Clouds
2:53 PM 84.9 °F 85.4 °F 62.1 °F 46% 30.06 in 10.0 mi East 8.1 mph - N/A   Clear
3:53 PM 84.0 °F 85.4 °F 64.0 °F 51% 30.05 in 10.0 mi East 6.9 mph - N/A   Scattered Clouds
4:53 PM 82.0 °F 83.8 °F 64.9 °F 56% 30.05 in 10.0 mi East 4.6 mph - N/A   Clear
5:53 PM 81.0 °F 82.7 °F 64.9 °F 58% 30.04 in 10.0 mi East 4.6 mph - N/A   Clear
6:53 PM 75.9 °F - 64.9 °F 69% 30.04 in 10.0 mi NE 6.9 mph - N/A   Clear
7:53 PM 71.1 °F - 64.0 °F 78% 30.05 in 10.0 mi ENE 5.8 mph - N/A   Clear
8:53 PM 71.1 °F - 64.9 °F 81% 30.06 in 10.0 mi ENE 9.2 mph - N/A   Clear
9:53 PM 68.0 °F - 64.0 °F 87% 30.06 in 10.0 mi ENE 8.1 mph - N/A   Clear
10:53 PM 68.0 °F - 64.0 °F 87% 30.06 in 10.0 mi East 4.6 mph - N/A   Clear
11:53 PM 66.9 °F - 63.0 °F 87% 30.06 in 10.0 mi East 3.5 mph - N/A   Clear